GW2704 Weather Reports


time (UTC)temp
C
wind
direction
speed
KPH
gust
KPH
rain 1hr
cm
rain 24hr
cm
rain mn
cm
humidity
%
barometer
mb
20260507001542 14 157 1.6 1.6 0.00 0.00 0.00 78 1022.8
20260507000606 14 168 1.6 3.2 0.00 0.00 0.00 78 1022.9
20260506235552 15 166 1.6 8.0 0.00 0.00 0.00 77 1022.8
20260506234552 14 150 1.6 1.6 0.00 0.00 0.00 77 1022.9
20260506233533 14 174 3.2 4.8 0.00 0.00 0.00 78 1022.8
20260506232533 14 167 4.8 8.0 0.00 0.00 0.00 78 1022.8
20260506231532 14 177 4.8 8.0 0.00 0.00 0.00 77 1022.9
20260506230533 15 185 6.4 9.7 0.00 0.00 0.00 77 1022.9
20260506225532 15 193 4.8 8.0 0.00 0.00 0.00 79 1022.9
20260506224532 15 175 3.2 4.8 0.00 0.00 0.00 80 1022.9
20260506223532 14 182 4.8 9.7 0.00 0.00 0.00 80 1023.0
20260506222532 14 179 4.8 4.8 0.00 0.00 0.00 80 1023.0
20260506221633 15 172 3.2 4.8 0.00 0.00 0.00 81 1023.0
20260506220534 14 188 3.2 8.0 0.00 0.00 0.00 80 1023.0
20260506215532 14 188 3.2 4.8 0.00 0.00 0.00 82 1023.0
20260506214532 14 199 3.2 4.8 0.00 0.00 0.00 82 1023.1
20260506213533 14 187 1.6 4.8 0.00 0.00 0.00 81 1023.2
20260506212532 14 192 4.8 8.0 0.00 0.00 0.00 81 1023.0
20260506211533 14 173 6.4 12.9 0.00 0.00 0.00 81 1023.2
20260506210532 15 159 3.2 4.8 0.00 0.00 0.00 81 1023.1
20260506205532 15 178 8.0 11.3 0.00 0.00 0.00 80 1022.9
20260506204532 15 166 4.8 8.0 0.00 0.00 0.00 79 1022.9
20260506203533 15 172 4.8 9.7 0.00 0.00 0.00 80 1023.0
20260506202553 15 199 6.4 9.7 0.00 0.00 0.00 80 1023.0
20260506201532 15 192 6.4 11.3 0.00 0.00 0.00 79 1023.1
20260506200607 15 185 3.2 11.3 0.00 0.00 0.00 81 1023.0
20260506195653 15 170 3.2 8.0 0.00 0.00 0.00 82 1022.8
20260506194518 14 185 4.8 8.0 0.00 0.00 0.00 84 1022.7
20260506193532 14 164 3.2 4.8 0.00 0.00 0.00 85 1022.8
20260506192533 13 168 3.2 3.2 0.00 0.00 0.00 86 1022.9
20260506191558 13 173 3.2 8.0 0.00 0.00 0.00 86 1022.8
20260506190553 13 182 3.2 4.8 0.00 0.00 0.00 86 1022.7
20260506185558 13 193 3.2 4.8 0.00 0.00 0.00 86 1022.8
20260506184533 13 191 3.2 4.8 0.00 0.00 0.00 86 1022.7
20260506183614 13 167 3.2 8.0 0.00 0.00 0.00 85 1022.6
20260506182536 13 171 3.2 4.8 0.00 0.00 0.00 87 1022.5
20260506181533 13 180 3.2 8.0 0.00 0.00 0.00 88 1022.6
20260506180519 13 182 3.2 3.2 0.00 0.00 0.00 88 1022.6
20260506175535 13 181 1.6 3.2 0.00 0.00 0.00 89 1022.5
20260506174532 13 188 3.2 8.0 0.00 0.00 0.00 90 1022.2
20260506173634 13 178 3.2 8.0 0.00 0.00 0.00 90 1022.3
20260506172534 13 175 3.2 4.8 0.00 0.00 0.00 89 1022.5
20260506171552 13 186 1.6 3.2 0.00 0.00 0.00 88 1022.6
20260506170538 13 170 1.6 3.2 0.00 0.00 0.00 89 1022.4
20260506165542 13 168 0.0 1.6 0.00 0.00 0.00 88 1022.4
20260506164534 13 0.0 0.0 0.00 0.00 0.00 89 1022.3
20260506163532 13 167 1.6 3.2 0.00 0.00 0.00 89 1022.3
20260506162550 13 166 0.0 1.6 0.00 0.00 0.00 90 1022.1
20260506161546 13 168 1.6 3.2 0.00 0.00 0.00 90 1022.1
20260506160550 13 122 0.0 1.6 0.00 0.00 0.00 90 1022.0
20260506155534 12 135 0.0 1.6 0.00 0.00 0.00 91 1021.8
20260506154532 12 157 0.0 1.6 0.00 0.00 0.00 93 1021.7
20260506153558 12 179 0.0 4.8 0.00 0.00 0.00 95 1021.9
20260506152533 12 0.0 0.0 0.00 0.00 0.00 95 1021.9
20260506151558 12 0.0 0.0 0.00 0.00 0.00 95 1022.0
20260506150518 12 0.0 0.0 0.00 0.00 0.00 95 1022.1
20260506145532 12 0.0 0.0 0.00 0.00 0.00 95 1021.7
20260506144606 12 0.0 0.0 0.00 0.00 0.00 95 1021.7
20260506143533 12 0.0 0.0 0.00 0.00 0.00 95 1021.8
20260506142532 12 0.0 0.0 0.00 0.00 0.00 95 1021.8
20260506141614 12 0.0 0.0 0.00 0.00 0.00 95 1021.6
20260506140532 12 0.0 0.0 0.00 0.00 0.00 94 1021.6
20260506135533 12 0.0 0.0 0.00 0.00 0.00 94 1021.6
20260506134626 12 0.0 0.0 0.00 0.00 0.00 94 1021.6
20260506133532 11 0.0 0.0 0.00 0.00 0.00 94 1021.6
20260506132533 11 0.0 0.0 0.00 0.00 0.00 95 1021.4
20260506131532 11 0.0 0.0 0.00 0.00 0.00 95 1021.4
20260506130533 11 0.0 0.0 0.00 0.00 0.00 95 1021.1
20260506125554 11 0.0 0.0 0.00 0.00 0.00 95 1021.1
20260506124518 11 0.0 0.0 0.00 0.00 0.00 95 1020.9
20260506123542 11 0.0 0.0 0.00 0.00 0.00 96 1021.1
20260506122532 11 0.0 0.0 0.00 0.00 0.00 96 1021.0
20260506121527 11 0.0 0.0 0.00 0.00 0.00 96 1020.9
20260506120550 11 0.0 0.0 0.00 0.00 0.00 96 1021.0
20260506115532 11 0.0 0.0 0.00 0.00 0.00 96 1020.8
20260506114534 11 0.0 0.0 0.00 0.00 0.00 96 1020.8
20260506113553 11 0.0 0.0 0.00 0.00 0.00 97 1020.8
20260506112532 11 0.0 0.0 0.00 0.00 0.00 97 1020.7
20260506111526 11 0.0 0.0 0.00 0.00 0.00 97 1020.5
20260506110610 11 0.0 0.0 0.00 0.00 0.00 97 1020.4
20260506105559 11 0.0 0.0 0.00 0.00 0.00 97 1020.3
20260506104532 11 0.0 0.0 0.00 0.00 0.00 97 1020.3
20260506103558 11 0.0 0.0 0.00 0.00 0.00 97 1020.1
20260506102532 11 0.0 0.0 0.00 0.00 0.00 97 1020.1
20260506101532 10 0.0 0.0 0.00 0.00 0.00 97 1020.0
20260506100626 10 0.0 0.0 0.00 0.00 0.00 97 1019.9
20260506095553 10 0.0 0.0 0.00 0.00 0.00 97 1020.0
20260506094612 10 0.0 0.0 0.00 0.00 0.00 97 1019.8
20260506093620 10 0.0 0.0 0.00 0.00 0.00 97 1019.8
20260506092533 10 0.0 0.0 0.00 0.00 0.00 97 1019.8
20260506091532 10 0.0 0.0 0.00 0.00 0.00 97 1019.7
20260506090606 10 0.0 0.0 0.00 0.00 0.00 97 1019.7
20260506085532 10 0.0 0.0 0.00 0.00 0.00 96 1019.6
20260506084612 10 0.0 0.0 0.00 0.00 0.00 96 1019.4
20260506083614 10 0.0 0.0 0.00 0.00 0.00 96 1019.4
20260506082534 10 0.0 0.0 0.00 0.00 0.00 96 1019.2
20260506081532 10 0.0 0.0 0.00 0.00 0.00 96 1019.2
20260506080538 11 0.0 0.0 0.00 0.00 0.00 96 1019.1
20260506073526 11 0.0 0.0 0.00 0.00 0.00 95 1019.0
20260506072552 11 0.0 0.0 0.00 0.00 0.00 95 1019.0
20260506071526 11 0.0 0.0 0.00 0.00 0.00 95 1018.9
20260506070612 11 0.0 0.0 0.00 0.00 0.00 94 1018.8
20260506061558 11 0.0 0.0 0.00 0.00 0.00 93 1018.6
20260506060518 12 0.0 0.0 0.00 0.00 0.00 93 1018.5
20260506050538 13 0.0 0.0 0.00 0.00 0.00 89 1017.8
20260506044550 13 0.0 0.0 0.00 0.00 0.00 88 1017.8
20260506043615 13 0.0 0.0 0.00 0.00 0.00 88 1017.6
20260506042533 13 0.0 0.0 0.00 0.00 0.00 88 1017.6
20260506041558 14 0.0 0.0 0.00 0.00 0.00 87 1017.5
20260506040633 15 0.0 0.0 0.00 0.00 0.00 86 1017.4
20260506035600 15 0.0 0.0 0.00 0.00 0.00 85 1017.5
20260506034550 15 0.0 0.0 0.00 0.00 0.00 84 1017.4
20260506033614 15 0.0 0.0 0.00 0.00 0.00 83 1017.3
20260506032533 16 0.0 0.0 0.00 0.00 0.00 82 1017.2
20260506031542 16 0.0 0.0 0.00 0.00 0.00 80 1017.2
20260506030607 16 0.0 0.0 0.00 0.00 0.00 79 1017.1
20260506025526 16 0.0 0.0 0.00 0.00 0.00 78 1017.0
20260506024550 17 0.0 0.0 0.00 0.00 0.00 77 1017.1
20260506023614 17 0.0 0.0 0.00 0.00 0.00 77 1017.1
20260506022613 17 154 0.0 1.6 0.00 0.00 0.00 76 1017.0
20260506021559 17 0.0 0.0 0.00 0.00 0.00 74 1017.0
20260506020533 18 140 0.0 1.6 0.00 0.00 0.00 73 1017.0
20260506015535 18 0.0 0.0 0.00 0.00 0.00 70 1016.9
20260506014533 19 86 0.0 1.6 0.00 0.00 0.00 70 1016.9
20260506013532 19 116 0.0 1.6 0.00 0.00 0.00 68 1016.9
20260506012533 20 120 0.0 1.6 0.00 0.00 0.00 67 1017.0
20260506011613 19 135 1.6 1.6 0.00 0.00 0.00 69 1017.0
20260506010533 19 119 0.0 1.6 0.00 0.00 0.00 68 1017.2
20260506005558 19 110 0.0 1.6 0.00 0.00 0.00 67 1017.2
20260506004533 19 43 0.0 3.2 0.00 0.00 0.00 68 1017.1
20260506003533 19 166 3.2 4.8 0.00 0.00 0.00 70 1017.1
20260506002626 19 136 0.0 1.6 0.00 0.00 0.00 69 1017.2